SL-16 DEB

Satellite information

Favourite Embed

Satellite Type and Status

DEBRISDECAYED

Key statistics

Satellite SL-16 DEB at a glance.

Uptime

11757

Days in orbit

Revolutions

≈ 15.9

Per day

Orbit

LEO

Low Earth Orbit

Inclination

71.3

Latest

Satellite identification and parameters

Extended collection of information and parameters for SL-16 DEB.

Object identification

Identified? True

Debris? True

Object name: SL-16 DEB

International designator: 1992-093HG

Object number (NORAD): 22546

Object ID (CCSDS): 22546

Country: COMMONWEALTH OF INDEPENDENT STATES (CIS)

Current information (Y/N): Y

RCS size: SMALL

Orbital parameters

Decay date: March 4, 2025

Period: 90.329 minutes

Inclination: 71.3198 deg

SMA: 6668.78 km

Apoapsis: 298.367 km

Periapsis: 282.923 km

RAAN: 51.165 deg

Eccentricy: 0.001158

Argument of periapsis: 164.1157 deg

Mean anomaly: 196.0426 deg

Mean motion: 15.94164673 rev/day

Mean motion (dot): 0.09454563 rev/day2

B* drag term: 0.03603 1/REarth

Two-line elements (TLE)

Creation date: March 1, 2025, 6:46 a.m.

Reference frame: TEME

Reference center: EARTH

Epoch: Feb. 28, 2025, 11:09 p.m. UTC

TLE line 0: 0 SL-16 DEB

TLE line 1: 1 22546U 92093HG 25059.96498580 .09454563 18839+0 36030-1 0 9999

TLE line 2: 2 22546 71.3198 51.1650 0011580 164.1157 196.0426 15.94164673658483

Live tracking on map

Satellite SL-16 DEB has decayed and is no longer in orbit. No tracking available.

In-orbit conjunctions

Satellite SL-16 DEB has decayed and is no longer in orbit. No conjunctions available.

Associated space launch

Second generation ELING satellite

SL-16 DEB was lifted into orbit during the mission ‘Zenit-2 | Tselina-2 12’, on board a Zenit-2 space rocket.

The launch took place on Dec. 25, 1992, 5:56 a.m. from 45/1.

For more information about the launch, click the button.

Launch to space Zenit-2 | Tselina-2 12
Zenit-2 | Tselina-2 12

Agency: N/A

Status: Launch Successful

Launch date: Dec. 25, 1992, 5:56 a.m. UTC

Rocket: Zenit-2

Launch pad: 45/1

Location: Baikonur Cosmodrome, Republic of Kazakhstan

...

Latest news about this satellite

There are no fresh news available about this satellite. Check back as we update our databases every day.


Newsletter sign-up

Weekly statistics, charts and insights to help you stay on top of the space industry.